User: anonymous   Login
Location: Theydon Bois
(51.6750°N, 0.1050°E)
Time: 11:30:45
(UTC+00:00)
Language:

Iridium 4 Rocket - Orbit

View from above orbital plane
View from above orbital plane
View from above satellite
View from above satellite

Ground track
Ground track

The orbit data is extracted from the following two-line orbital elements,

1 24797U 97020F   18015.88009005  .00000119  00000-0  20626-4 0  9993
2 24797  86.8963 275.4515 0224269 328.7118  98.3672 14.44032841 88636
Epoch (UTC): 15 January 2018 21:07:19
Eccentricity: 0.0224269
inclination: 86.8963°
perigee height: 585 km
apogee height: 905 km
right ascension of ascending node: 275.4515°
argument of perigee: 328.7118°
revolutions per day: 14.44032841
mean anomaly at epoch: 98.3672°
orbit number at epoch: 8863

The dashed part of the orbit path shows where the satellite is in the earth's shadow,  

DLR